TimeCST,TemperatureF,Dew PointF,Humidity,Sea Level PressureIn,VisibilityMPH,Wind Direction,Wind SpeedMPH,Gust SpeedMPH,PrecipitationIn,Events,Conditions,WindDirDegrees,DateUTC
12:12 AM,27.5,26.2,95,30.00,10.0,Calm,Calm,-,N/A,,Clear,0,2013-11-03 05:12:00
12:32 AM,27.3,26.2,96,30.00,10.0,Calm,Calm,-,N/A,,Clear,0,2013-11-03 05:32:00
12:51 AM,25.3,23.9,94,30.00,10.0,SSE,4.6,-,N/A,,Clear,150,2013-11-03 05:51:00
1:12 AM,27.1,26.2,96,30.00,10.0,SE,4.6,-,N/A,,Clear,140,2013-11-03 06:12:00
1:32 AM,28.0,27.1,96,30.01,10.0,SSE,3.5,-,N/A,,Clear,160,2013-11-03 06:32:00
1:52 AM,29.5,28.4,96,30.01,10.0,SE,3.5,-,N/A,,Clear,130,2013-11-03 06:52:00
1:12 AM,28.4,27.3,96,30.00,10.0,Calm,Calm,-,N/A,,Clear,0,2013-11-03 07:12:00
1:31 AM,29.1,28.0,96,30.00,10.0,ESE,3.5,-,N/A,,Clear,110,2013-11-03 07:31:00
1:52 AM,30.0,28.6,94,30.00,10.0,SE,3.5,-,N/A,,Clear,140,2013-11-03 07:52:00
2:12 AM,31.6,30.0,94,30.00,10.0,SE,4.6,-,N/A,,Clear,130,2013-11-03 08:12:00
2:32 AM,31.6,30.2,94,30.00,10.0,ESE,6.9,-,N/A,,Clear,120,2013-11-03 08:32:00
2:52 AM,32.0,30.6,94,29.99,10.0,SE,8.1,-,N/A,,Mostly Cloudy,130,2013-11-03 08:52:00
3:12 AM,32.4,31.1,95,30.00,10.0,SE,8.1,-,N/A,,Scattered Clouds,130,2013-11-03 09:12:00
3:32 AM,32.4,31.3,96,29.99,10.0,SE,8.1,-,N/A,,Clear,130,2013-11-03 09:32:00
3:51 AM,32.9,31.6,95,29.98,10.0,SE,8.1,-,N/A,,Scattered Clouds,130,2013-11-03 09:51:00
4:12 AM,33.3,31.8,94,29.98,10.0,SE,10.4,-,N/A,,Mostly Cloudy,130,2013-11-03 10:12:00
4:32 AM,33.8,32.0,93,29.97,10.0,SE,9.2,-,N/A,,Overcast,140,2013-11-03 10:32:00
4:51 AM,33.8,32.0,93,29.97,10.0,SE,8.1,-,N/A,,Overcast,140,2013-11-03 10:51:00
5:12 AM,34.0,32.0,92,29.96,10.0,SE,10.4,-,N/A,,Scattered Clouds,140,2013-11-03 11:12:00
5:32 AM,34.7,32.0,90,29.96,10.0,SE,10.4,-,N/A,,Mostly Cloudy,140,2013-11-03 11:32:00
5:52 AM,34.3,32.0,91,29.96,10.0,SE,9.2,-,N/A,,Scattered Clouds,130,2013-11-03 11:52:00
6:12 AM,34.3,32.0,91,29.95,10.0,SE,9.2,-,N/A,,Clear,130,2013-11-03 12:12:00
6:32 AM,34.5,32.0,90,29.94,10.0,SE,10.4,-,N/A,,Scattered Clouds,130,2013-11-03 12:32:00
6:51 AM,34.2,32.0,92,29.94,10.0,SE,9.2,-,N/A,,Scattered Clouds,130,2013-11-03 12:51:00
7:12 AM,33.8,31.8,92,29.94,10.0,SE,8.1,-,N/A,,Clear,130,2013-11-03 13:12:00
7:32 AM,34.9,32.0,89,29.94,10.0,SE,10.4,-,N/A,,Clear,140,2013-11-03 13:32:00
7:51 AM,35.6,32.0,87,29.94,10.0,SE,11.5,-,N/A,,Clear,130,2013-11-03 13:51:00
8:12 AM,37.0,32.2,83,29.93,7.0,SE,13.8,17.3,N/A,,Clear,130,2013-11-03 14:12:00
8:32 AM,37.8,32.2,80,29.93,10.0,SE,13.8,-,N/A,,Clear,130,2013-11-03 14:32:00
8:51 AM,39.2,32.4,76,29.93,10.0,SE,12.7,20.7,N/A,,Scattered Clouds,140,2013-11-03 14:51:00
9:12 AM,39.7,32.5,75,29.92,10.0,SE,15.0,19.6,N/A,,Overcast,130,2013-11-03 15:12:00
9:32 AM,40.1,32.9,75,29.91,10.0,ESE,15.0,-,N/A,,Overcast,120,2013-11-03 15:32:00
9:51 AM,40.1,32.9,75,29.90,10.0,ESE,11.5,17.3,N/A,,Overcast,120,2013-11-03 15:51:00
10:12 AM,41.0,33.1,73,29.90,10.0,SE,16.1,-,N/A,,Overcast,130,2013-11-03 16:12:00
10:32 AM,41.4,32.9,72,29.89,10.0,ESE,11.5,17.3,N/A,,Overcast,120,2013-11-03 16:32:00
10:51 AM,42.1,33.1,70,29.88,10.0,ESE,15.0,19.6,N/A,,Overcast,120,2013-11-03 16:51:00
11:12 AM,43.0,33.1,68,29.87,10.0,SE,15.0,19.6,N/A,,Overcast,130,2013-11-03 17:12:00
11:31 AM,45.3,33.3,63,29.86,10.0,SE,19.6,25.3,N/A,,Overcast,130,2013-11-03 17:31:00
11:52 AM,45.7,32.5,60,29.85,10.0,SE,15.0,24.2,N/A,,Scattered Clouds,130,2013-11-03 17:52:00
12:12 PM,46.2,32.5,59,29.82,10.0,SE,17.3,29.9,N/A,,Clear,130,2013-11-03 18:12:00
12:32 PM,45.5,32.0,59,29.81,10.0,ESE,20.7,27.6,N/A,,Clear,120,2013-11-03 18:32:00
12:51 PM,46.4,32.2,58,29.79,10.0,ESE,21.9,33.4,N/A,,Clear,120,2013-11-03 18:51:00
1:12 PM,45.9,32.0,58,29.78,10.0,ESE,17.3,27.6,N/A,,Clear,120,2013-11-03 19:12:00
1:32 PM,47.1,32.2,56,29.77,10.0,SE,19.6,27.6,N/A,,Clear,130,2013-11-03 19:32:00
1:52 PM,46.6,32.0,57,29.76,10.0,SE,20.7,27.6,N/A,,Clear,130,2013-11-03 19:52:00
2:12 PM,47.3,32.2,56,29.77,10.0,SE,20.7,28.8,N/A,,Clear,140,2013-11-03 20:12:00
2:32 PM,47.1,32.4,57,29.76,10.0,SE,20.7,29.9,N/A,,Clear,130,2013-11-03 20:32:00
2:51 PM,48.2,32.7,55,29.76,10.0,SE,20.7,27.6,N/A,,Clear,130,2013-11-03 20:51:00
3:12 PM,48.2,32.5,55,29.77,10.0,SE,17.3,24.2,N/A,,Clear,140,2013-11-03 21:12:00
3:32 PM,48.7,32.0,52,29.77,10.0,SE,16.1,24.2,N/A,,Clear,140,2013-11-03 21:32:00
3:51 PM,48.0,32.0,54,29.77,10.0,SE,19.6,23.0,N/A,,Scattered Clouds,130,2013-11-03 21:51:00
4:12 PM,47.5,32.0,55,29.76,10.0,SE,16.1,23.0,N/A,,Scattered Clouds,140,2013-11-03 22:12:00
4:32 PM,46.9,32.0,56,29.76,10.0,SE,16.1,24.2,N/A,,Clear,130,2013-11-03 22:32:00
4:51 PM,46.0,32.0,58,29.77,10.0,SE,16.1,-,N/A,,Scattered Clouds,130,2013-11-03 22:51:00
5:12 PM,45.7,32.2,59,29.76,10.0,SE,16.1,20.7,N/A,,Scattered Clouds,130,2013-11-03 23:12:00
5:32 PM,45.5,32.4,60,29.77,10.0,SE,17.3,21.9,N/A,,Clear,130,2013-11-03 23:32:00
5:51 PM,45.5,32.2,60,29.77,10.0,SE,17.3,24.2,N/A,,Clear,140,2013-11-03 23:51:00
6:12 PM,45.0,32.0,60,29.76,10.0,SE,18.4,24.2,N/A,,Clear,130,2013-11-04 00:12:00
6:32 PM,44.6,32.2,62,29.77,10.0,SE,16.1,-,N/A,,Clear,130,2013-11-04 00:32:00
6:51 PM,44.4,32.2,62,29.77,10.0,SE,16.1,23.0,N/A,,Clear,140,2013-11-04 00:51:00
7:12 PM,44.4,32.0,62,29.77,10.0,SE,12.7,21.9,N/A,,Clear,130,2013-11-04 01:12:00
7:31 PM,44.4,32.0,62,29.77,10.0,SE,15.0,23.0,N/A,,Clear,140,2013-11-04 01:31:00
7:52 PM,44.2,32.0,62,29.77,10.0,SE,13.8,21.9,N/A,,Scattered Clouds,140,2013-11-04 01:52:00
8:12 PM,44.6,32.0,61,29.77,10.0,SE,16.1,-,N/A,,Mostly Cloudy,140,2013-11-04 02:12:00
8:32 PM,44.8,32.0,61,29.76,10.0,SE,13.8,-,N/A,,Overcast,140,2013-11-04 02:32:00
8:52 PM,45.0,32.0,60,29.76,10.0,SE,15.0,-,N/A,,Overcast,130,2013-11-04 02:52:00
9:12 PM,45.0,32.0,60,29.76,10.0,SE,16.1,-,N/A,,Overcast,140,2013-11-04 03:12:00
9:32 PM,45.3,32.0,60,29.76,10.0,SE,12.7,21.9,N/A,,Overcast,140,2013-11-04 03:32:00
9:51 PM,45.1,32.0,60,29.76,10.0,SE,12.7,-,N/A,,Overcast,130,2013-11-04 03:51:00
10:12 PM,45.0,32.0,60,29.76,10.0,SE,13.8,20.7,N/A,,Overcast,130,2013-11-04 04:12:00
10:32 PM,45.0,32.0,60,29.76,10.0,SE,16.1,20.7,N/A,,Overcast,140,2013-11-04 04:32:00
10:51 PM,45.5,31.8,59,29.75,10.0,SE,12.7,-,N/A,,Overcast,140,2013-11-04 04:51:00